Regional Weather Roundup
Issued by NWS Kansas City/Pleasant Hill, MO

Home | Current Version | Previous Version | Graphics & Text | Print | Product List | Glossary Off
Versions: 1 2 3 4 5 6 7 8 9 10 11 12 13 14 15 16 17 18 19 20 21 22 23 24 25 26 27 28 29 30 31 32 33 34 35 36 37 38 39 40 41 42 43 44 45 46 47 48 49 50

000
ASUS43 KEAX 280711
RWREAX

WEATHER ROUNDUP FOR EASTERN KANSAS AND NORTHWEST MISSOURI
NATIONAL WEATHER SERVICE KANSAS CITY/PLEASANT HILL MO
200 AM CDT TUE APR 28 2015

KSZ040-057-103>105-MOZ028-029-037-043-280800-
...KANSAS CITY METROPOLITAN AREA...

CITY           SKY/WX    TMP DP  RH WIND       PRES   REMARKS
K.C. INTL      PTCLDY    49  36  61 NE5       30.14S
K.C. DOWNTOWN  MOCLDY    53  36  52 CALM      30.13S
LEES SUMMIT    MOCLDY    50  36  58 N5        30.13S
OLATHE - IXD   CLOUDY    48  38  68 NE6       30.13F
OLATHE - OJC   CLOUDY    51  37  58 NE6       30.12S
LAWRENCE       MOCLDY    44  38  79 CALM      30.14S

$$

MOZ001>008-011>017-020>025-030>033-038>040-044>046-053-054-280800-
...NORTHERN AND CENTRAL MISSOURI...

CITY           SKY/WX    TMP DP  RH WIND       PRES   REMARKS
ST. JOSEPH     PTCLDY    45  37  73 CALM      30.15S
MOSBY          MOSUNNY   41  41 100 CALM      30.14S
WARRENSBURG    MOCLDY    46  37  71 N5        30.12S
WHITEMAN AFB   PTCLDY    44  38  77 N3        30.11S
CLINTON        MOCLDY    46  39  76 NE5       30.12R
SEDALIA        CLEAR     50  38  63 NE5       30.13S
WARSAW         NOT AVBL
CHILLICOTHE      N/A     45  39  79 CALM      30.15F
KIRKSVILLE     CLEAR     42  40  92 CALM      30.15R

$$

MOZ041-047>049-056>058-063>065-088>090-097-280800-
...EASTERN AND SOUTHERN MISSOURI...

CITY           SKY/WX    TMP DP  RH WIND       PRES   REMARKS
ST. LOUIS INTL PTCLDY    50  38  63 E5        30.12R
SPIRIT OF STL  CLEAR     42  39  89 CALM      30.12R
COLUMBIA       CLEAR     47  37  68 NE6       30.11S
JEFFERSON CITY CLEAR     44  38  79 CALM      30.12R
ROLLA          CLEAR     44  36  73 NE6       30.08S
OSAGE BEACH    PTCLDY    46  36  66 NE3       30.10S
SPRINGFIELD    PTCLDY    50  36  58 NE7       30.07S
BRANSON        CLOUDY    50  36  57 CALM      30.06S
JOPLIN         CLOUDY    51  38  60 NE5       30.07S
WEST PLAINS    CLEAR     44  35  70 NE6       30.07R

$$

IAZ060-094-KSZ022-034>040-054-083-096-NEZ052-066-093-280800-
...KANSAS...SOUTHEAST NEBRASKA AND IOWA...

CITY           SKY/WX    TMP DP  RH WIND       PRES   REMARKS
TOPEKA         MOCLDY    46  40  79 CALM      30.14S
MANHATTAN      PTCLDY    41  38  89 CALM      30.16R
EMPORIA        CLOUDY    48  39  71 NW3       30.12S
CHANUTE        CLOUDY    52  39  61 NE6       30.10R
WICHITA        CLOUDY    52  38  58 N7        30.12S
OMAHA          MOCLDY    43  39  86 NW7       30.19R
LINCOLN        PTCLDY    41  36  82 N8        30.20S
FALLS CITY     PTCLDY    52  34  50 CALM      30.16R
LAMONI         CLEAR     48  35  60 NW5       30.15S
DES MOINES     PTCLDY    49  37  63 N3        30.16S

$$



USA.gov is the U.S. government's official web portal to all federal, state and local government web resources and services.